{"data":{"norad_id":65290,"intl_designator":"2025-184T","name":"STARLINK-34984","alt_names":[],"object_type":"PAYLOAD","status":"ACTIVE","operator":null,"country":"US","launch_date":"2025-08-22","launch_site_code":"AFWTR","launch_vehicle":null,"mission":null,"orbit_class":"UNKNOWN","rcs_meters":null,"size_class":null,"mass_kg":null,"dimensions":null,"purposes":["comms"],"wikipedia_slug":null,"has_3d_model":false,"image_url":null,"decayed_at":null,"tle_current":{"epoch":"2026-09-19T09:16:54.406848Z","epoch_age_seconds":213739,"freshness":"STALE","line1":"1 65290U 25184T   26262.38674082  .00013334  00000+0  41459-3 0  9997","line2":"2 65290  97.2826 310.3709 0001216  92.6397 267.4985 15.33447002 60553","mean_motion":15.33447002,"eccentricity":0.0001216,"inclination_deg":97.2826,"raan_deg":310.3709,"arg_perigee_deg":92.6397,"mean_anomaly_deg":267.4985,"bstar":0.00041459,"rev_number":6055,"period_min":93.906082057083,"perigee_km":464.70502715624,"apogee_km":466.36940872604,"semimajor_km":6843.6742179411,"source":"CELESTRAK","updated_at":"2026-09-21T09:00:35.567132Z"}}}